This is the latest recevied weather packets stored in our database for station/object DB0WUN-13. If no packets are shown the sender has not sent any weather packets the latest 10 day(s).
| Time | Temp. | Humidity | Pressure | Rain* | Wind** | Luminosity | Snow |
|---|---|---|---|---|---|---|---|
| 1778158716 | 9.44° C | 86% | 1013.8 hPa | 0.25 mm | - | 269 W/m² | - |
| 1778158651 | 10° C | 87% | 1013.8 hPa | 0.25 mm | - | 257 W/m² | - |
| 1778158592 | 10° C | 87% | 1013.7 hPa | 0.25 mm | - | 250 W/m² | - |
| 1778158535 | 10° C | 87% | 1013.7 hPa | 0.25 mm | - | 221 W/m² | - |
| 1778158477 | 10° C | 87% | 1013.8 hPa | 0.25 mm | - | 193 W/m² | - |
| 1778158413 | 10° C | 87% | 1013.8 hPa | 0.25 mm | - | 163 W/m² | - |
| 1778158352 | 10° C | 88% | 1013.7 hPa | 0.25 mm | - | 155 W/m² | - |
| 1778158292 | 10° C | 87% | 1013.6 hPa | 0.25 mm | - | 156 W/m² | - |
| 1778158233 | 10° C | 87% | 1013.8 hPa | 0.25 mm | - | 169 W/m² | - |
| 1778158179 | 10° C | 88% | 1013.7 hPa | 0.25 mm | - | 193 W/m² | - |
| 1778158111 | 10° C | 87% | 1013.7 hPa | 0.25 mm | - | 193 W/m² | - |
| 1778158052 | 9.44° C | 87% | 1013.6 hPa | 0.25 mm | - | 186 W/m² | - |
| 1778157994 | 9.44° C | 87% | 1013.6 hPa | 0.25 mm | - | 179 W/m² | - |
| 1778157937 | 9.44° C | 87% | 1013.6 hPa | 0.25 mm | - | 174 W/m² | - |
| 1778157890 | 9.44° C | 87% | 1013.6 hPa | 0.25 mm | - | 158 W/m² | - |
| 1778157837 | 9.44° C | 87% | 1013.6 hPa | 0.25 mm | - | 151 W/m² | - |
| 1778157807 | 9.44° C | 87% | 1013.6 hPa | 0.25 mm | - | 148 W/m² | - |
| 1778157767 | 9.44° C | 87% | 1013.6 hPa | 0.25 mm | - | 146 W/m² | - |
| 1778157732 | 9.44° C | 87% | 1013.6 hPa | 0.25 mm | - | 148 W/m² | - |
| 1778157689 | 9.44° C | 87% | 1013.6 hPa | 0.25 mm | - | 149 W/m² | - |
| 1778157510 | 9.44° C | 87% | 1013.6 hPa | 0.25 mm | - | 155 W/m² | - |
| 1778157450 | 9.44° C | 87% | 1013.6 hPa | 0.25 mm | - | 158 W/m² | - |
| 1778157389 | 9.44° C | 88% | 1013.6 hPa | 0.25 mm | - | 163 W/m² | - |
| 1778157329 | 9.44° C | 88% | 1013.5 hPa | 0.25 mm | - | 172 W/m² | - |
| 1778157269 | 9.44° C | 88% | 1013.6 hPa | 0.25 mm | - | 186 W/m² | - |
* Rain latest hour (hover to see other rain measurements)
** Current wind speed in m/s (hover to see current wind gust speed)